Westminster, MD

4:01 PM EST on November 21, 2019 (GMT -0500)
Carroll County Regional-Poage

Weather History for KDMW - September, 2019

Change the Weather History Date:

Wednesday, September 25, 2019

  Actual Average (KTHV) Record (KTHV)
Temperature  
Mean Temperature 68 °F -  
Max Temperature 82 °F 0 °F 90 °F (2017)
Min Temperature 53 °F - 36 °F (1997)
Cooling Degree Days 2    
Growing Degree Days 18 (Base 50)    
Moisture  
Dew Point 50 °F    
Average Humidity 59    
Maximum Humidity 94    
Minimum Humidity 16    
Precipitation  
Precipitation 0.00 in - - ()
Sea Level Pressure  
Sea Level Pressure 29.92 in    
Wind  
Wind Speed 2 mph (WSW)    
Max Wind Speed 10 mph    
Max Gust Speed -    
Visibility 10 miles    
Events      
Averages and records for this station are not official NWS values.
T = Trace of Precipitation, MM = Missing Value Source: NWS Daily Summary

Daily Weather History Graph

Daily Weather History Graph

Search for Another Location

Airport or City:

Astronomy

Sep. 25, 2019 Rise Set
Actual Time 6:58 AM EDT 7:00 PM EDT
Civil Twilight 6:31 AM EDT 7:27 PM EDT
Nautical Twilight 5:59 AM EDT 7:58 PM EDT
Astronomical Twilight 5:28 AM EDT 8:30 PM EDT
Moon 2:50 AM EDT (9/25) 5:30 PM EDT (9/25)
Length of Visible Light 12h 56m
Length of Day
12h 02m
Waning Crescent, 14% of the Moon is Illuminated
Sep 25
Waning Crescent
Sep 28
New
Oct 5
First Quarter
Oct 13
Full
Oct 21
Last Quarter

Hourly Weather History & Observations

Time (EDT) Temp. Dew Point Humidity Pressure Visibility Wind Dir Wind Speed Gust Speed Precip Events Conditions
12:00 AM 62.6 °F 51.8 °F 68% 29.94 in 10.0 mi Calm Calm - N/A   Clear
12:20 AM 60.8 °F 51.8 °F 72% 29.94 in 10.0 mi Calm Calm - N/A   Clear
12:40 AM 60.8 °F 53.6 °F 77% 29.94 in 10.0 mi Calm Calm - N/A   Clear
1:00 AM 60.8 °F 51.8 °F 72% 29.93 in 10.0 mi Calm Calm - N/A   Clear
1:20 AM 59.0 °F 51.8 °F 77% 29.93 in 10.0 mi Calm Calm - N/A   Clear
1:40 AM 60.8 °F 51.8 °F 72% 29.93 in 10.0 mi Calm Calm - N/A   Clear
2:00 AM 57.2 °F 51.8 °F 82% 29.92 in 10.0 mi Calm Calm - N/A   Clear
2:20 AM 57.2 °F 51.8 °F 82% 29.92 in 10.0 mi Calm Calm - N/A   Clear
2:40 AM 57.2 °F 51.8 °F 82% 29.91 in 10.0 mi Calm Calm - N/A   Clear
3:00 AM 57.2 °F 51.8 °F 82% 29.92 in 10.0 mi Calm Calm - N/A   Clear
3:20 AM 57.2 °F 51.8 °F 82% 29.92 in 10.0 mi Calm Calm - N/A   Clear
3:40 AM 57.2 °F 51.8 °F 82% 29.92 in 10.0 mi Calm Calm - N/A   Clear
4:00 AM 57.2 °F 51.8 °F 82% 29.93 in 10.0 mi Calm Calm - N/A   Clear
4:20 AM 55.4 °F 51.8 °F 88% - 10.0 mi Calm Calm - N/A   Clear
4:40 AM 55.4 °F 33.8 °F 44% 29.95 in 10.0 mi Calm Calm - N/A   Clear
5:00 AM 55.4 °F 51.8 °F 88% 29.95 in 10.0 mi Calm Calm - N/A   Clear
5:20 AM - - N/A% 29.95 in 10.0 mi Calm Calm - N/A   Clear
5:40 AM 55.4 °F 51.8 °F 88% 29.95 in 10.0 mi Calm Calm - N/A   Clear
6:00 AM 55.4 °F 51.8 °F 88% 29.95 in 10.0 mi Calm Calm - N/A   Clear
6:20 AM 55.4 °F 51.8 °F 88% 29.95 in 10.0 mi Calm Calm - N/A   Clear
6:40 AM 53.6 °F 51.8 °F 94% 29.95 in 10.0 mi Calm Calm - N/A   Clear
7:00 AM - - N/A% 29.96 in 10.0 mi Calm Calm - N/A   Clear
7:20 AM 53.6 °F 51.8 °F 94% 29.96 in 10.0 mi Calm Calm - N/A   Clear
7:40 AM 55.4 °F 51.8 °F 88% 29.96 in 10.0 mi Calm Calm - N/A   Clear
8:00 AM 57.2 °F 33.8 °F 41% 29.97 in 10.0 mi Calm Calm - N/A   Clear
8:20 AM 59.0 °F 53.6 °F 82% 29.97 in 10.0 mi Calm Calm - N/A   Clear
8:40 AM 62.6 °F 53.6 °F 72% 29.97 in 10.0 mi Calm Calm - N/A   Clear
9:00 AM 64.4 °F 53.6 °F 68% 29.97 in 10.0 mi Calm Calm - N/A   Clear
9:20 AM 64.4 °F 53.6 °F 68% 29.97 in 10.0 mi SW 3.5 mph - N/A   Clear
9:40 AM 66.2 °F 33.8 °F 30% 29.98 in 10.0 mi Calm Calm - N/A   Clear
10:00 AM 69.8 °F - N/A% 29.97 in 10.0 mi SW 3.5 mph - N/A   Clear
10:20 AM 69.8 °F 53.6 °F 56% 29.97 in 10.0 mi SW 5.8 mph - N/A   Clear
10:40 AM 71.6 °F 53.6 °F 53% 29.98 in 10.0 mi WSW 4.6 mph - N/A   Clear
11:00 AM 73.4 °F 53.6 °F 50% 29.98 in 10.0 mi West 6.9 mph - N/A   Clear
11:20 AM 73.4 °F 53.6 °F 50% 29.97 in 10.0 mi West 6.9 mph - N/A   Clear
11:40 AM 75.2 °F 51.8 °F 44% 29.97 in 10.0 mi Calm Calm - N/A   Clear
12:00 PM 75.2 °F 50.0 °F 41% 29.96 in 10.0 mi NW 4.6 mph - N/A   Clear
12:20 PM 75.2 °F 51.8 °F 44% 29.95 in 10.0 mi WSW 4.6 mph - N/A   Clear
12:40 PM 75.2 °F 48.2 °F 38% 29.94 in 10.0 mi SSW 3.5 mph - N/A   Clear
1:00 PM - - N/A% 29.93 in 10.0 mi West 9.2 mph - N/A   Clear
1:20 PM - - N/A% 29.92 in 10.0 mi Calm Calm - N/A   Clear
1:40 PM 78.8 °F 50.0 °F 36% 29.91 in 10.0 mi West 5.8 mph - N/A   Clear
2:00 PM 78.8 °F 50.0 °F 36% 29.90 in 10.0 mi WSW 6.9 mph - N/A   Clear
2:20 PM 78.8 °F 50.0 °F 36% 29.90 in 10.0 mi WNW 8.1 mph - N/A   Clear
2:40 PM 80.6 °F 50.0 °F 34% 29.89 in 10.0 mi West 9.2 mph - N/A   Clear
3:00 PM 80.6 °F 48.2 °F 32% 29.88 in 10.0 mi West 10.4 mph - N/A   Clear
3:20 PM 80.6 °F - N/A% 29.88 in 10.0 mi WNW 9.2 mph - N/A   Clear
3:40 PM 82.4 °F 48.2 °F 30% 29.87 in 10.0 mi WNW 3.5 mph - N/A   Clear
4:00 PM 82.4 °F 48.2 °F 30% 29.86 in 10.0 mi WSW 8.1 mph - N/A   Clear
4:20 PM 82.4 °F 48.2 °F 30% - 10.0 mi WSW 6.9 mph - N/A   Clear
4:40 PM 82.4 °F 48.2 °F 30% 29.87 in 10.0 mi West 10.4 mph - N/A   Clear
5:00 PM 82.4 °F 32.0 °F 16% 29.87 in 10.0 mi West 5.8 mph - N/A   Clear
5:20 PM 82.4 °F 48.2 °F 30% 29.87 in 10.0 mi West 6.9 mph - N/A   Clear
5:40 PM 82.4 °F 48.2 °F 30% 29.87 in 10.0 mi SW 4.6 mph - N/A   Clear
6:00 PM 82.4 °F - N/A% 29.87 in 10.0 mi SSW 6.9 mph - N/A   Clear
6:20 PM 80.6 °F 50.0 °F 34% 29.87 in 10.0 mi WSW 3.5 mph - N/A   Clear
6:40 PM 78.8 °F 50.0 °F 36% 29.87 in 10.0 mi SSW 3.5 mph - N/A   Clear
7:00 PM 75.2 °F 51.8 °F 44% 29.87 in 10.0 mi Calm Calm - N/A   Clear
7:20 PM 75.2 °F 33.8 °F 22% 29.87 in 10.0 mi South 3.5 mph - N/A   Clear
7:40 PM 71.6 °F - N/A% 29.88 in 10.0 mi Calm Calm - N/A   Clear
8:00 PM 69.8 °F 53.6 °F 56% 29.88 in 10.0 mi Calm Calm - N/A   Clear
8:20 PM 69.8 °F - N/A% 29.88 in 10.0 mi Calm Calm - N/A   Clear
8:40 PM 68.0 °F 53.6 °F 60% - 10.0 mi Calm Calm - N/A   Clear
9:00 PM 68.0 °F 53.6 °F 60% 29.88 in 10.0 mi Calm Calm - N/A   Clear
9:20 PM 66.2 °F 53.6 °F 64% 29.88 in 10.0 mi Calm Calm - N/A   Clear
9:40 PM 66.2 °F 53.6 °F 64% 29.89 in 10.0 mi Calm Calm - N/A   Clear
10:00 PM 66.2 °F 55.4 °F 68% 29.89 in 10.0 mi Calm Calm - N/A   Clear
10:20 PM 66.2 °F 53.6 °F 64% 29.89 in 10.0 mi Calm Calm - N/A   Clear
10:40 PM 66.2 °F 55.4 °F 68% 29.89 in 10.0 mi Calm Calm - N/A   Clear
11:00 PM 66.2 °F 53.6 °F 64% 29.89 in 10.0 mi Calm Calm - N/A   Clear
11:20 PM 64.4 °F 53.6 °F 68% 29.89 in 10.0 mi Calm Calm - N/A   Clear